Location: Montreal
(45.5000°N, 73.5833°W)
Time: 08:28:43
(UTC-04:00)

OTV 5 (USA 277) - Visible Passes

Search period start: 19 October 2019 00:00
Search period end: 29 October 2019 00:00
Orbit: 310 x 324 km, 54.5° (Epoch: 17 October)

Date Brightness Start Highest point End Pass type
(mag) Time Alt. Az. Time Alt. Az. Time Alt. Az.
19 Oct ? 05:23:09 45° E 05:23:09 45° E 05:25:16 10° ESE visible
20 Oct ? 05:37:47 37° S 05:37:47 37° S 05:39:45 10° SE visible
21 Oct ? 05:52:34 16° SSW 05:52:34 16° SSW 05:53:33 10° S visible
28 Oct ? 19:09:31 10° SSW 19:11:24 23° SSE 19:11:24 23° SSE visible
